Regional Weather Roundup
Issued by NWS

Home | Current Version | Previous Version | Text Only | Print | Product List | Glossary On
Versions: 1 2 3 4 5 6 7 8 9 10 11 12 13 14 15 16 17 18 19 20 21 22 23 24 25 26 27 28 29 30 31 32 33 34 35 36 37 38 39 40 41 42 43 44 45 46 47 48 49 50
000
ASUS45 KBOI 291110
RWRID
WEATHER ROUNDUP FOR IDAHO
NATIONAL WEATHER SERVICE BOISE ID
400 AM MST THU JAN 29 2015

NOTE: "FAIR" INDICATES FEW OR NO CLOUDS BELOW 12000 FEET
WITH NO SIGNIFICANT WEATHER AND/OR OBSTRUCTIONS TO VISIBILITY

IDZ012-014-291200-
SOUTHWEST IDAHO


CITY           SKY/WX    TMP DP  RH WIND       PRES   REMARKS
BOISE          CLEAR     36  33  89 SE9       30.42S WCI  29
CALDWELL       MOCLDY    34  25  69 SE9       30.45S WCI  26
MOUNTAIN HOME  PTCLDY    34  31  92 E12       30.43S WCI  25
$$

IDZ016-017-291200-
SOUTHCENTRAL IDAHO


CITY           SKY/WX    TMP DP  RH WIND       PRES   REMARKS
BURLEY         CLOUDY    36  33  89 NE6       30.42F WCI  31
JEROME         CLOUDY    34  31  88 E10       30.42F WCI  26
TWIN FALLS     FOG       35  32  88 NE7       30.41F VSB 1/4 WCI  29
$$

IDZ019>023-291200-
SOUTHEAST IDAHO


CITY           SKY/WX    TMP DP  RH WIND       PRES   REMARKS
IDAHO FALLS    CLOUDY    34  33  96 CALM      30.44F FOG
POCATELLO      CLOUDY    32  32 100 NE3       30.45S FOG
REXBURG        CLOUDY    32  32 100 CALM      30.44S FOG
$$

IDZ006-010-011-018-031-032-291200-
CENTRAL IDAHO MOUNTAINS


CITY           SKY/WX    TMP DP  RH WIND       PRES   REMARKS
MCCALL         CLEAR     19  16  88 CALM      30.37R
HAILEY         CLOUDY    28  28 100 NW7       30.45F WCI  21
STANLEY          N/A     11   5  77 CALM      30.44R
SALMON         CLOUDY    19  18  93 CALM      30.47F VSB 1/4
CHALLIS        CLOUDY    30  27  88 E3        30.44S
$$

IDZ002-004-006-007-026-291200-
NORTHERN IDAHO


CITY           SKY/WX    TMP DP  RH WIND       PRES   REMARKS
LEWISTON       FOG       31  31 100 CALM      30.44S VSB 1/4
LOWELL           N/A     33  31  92 CALM      30.51S
COEUR D`ALENE  CLOUDY    34  32  93 NE12      30.44S WCI  25
MULLAN PASS    CLEAR     26  23  88 S6        30.35S WCI  19
$$



USA.gov is the U.S. government's official web portal to all federal, state and local government web resources and services.